This is the latest recevied weather packets stored in our database for station/object K1RFS. If no packets are shown the sender has not sent any weather packets the latest 10 day(s).
| Time | Temp. | Humidity | Pressure | Rain* | Wind** | Luminosity | Snow |
|---|---|---|---|---|---|---|---|
| 1787439617 | 25.56° C | 58% | 1005.6 hPa | 0 mm | - | 59 W/m² | - |
| 1787439313 | 25.56° C | 57% | 1005.4 hPa | 0 mm | - | 65 W/m² | - |
| 1787439009 | 26.11° C | 50% | 1005.5 hPa | 0 mm | - | 86 W/m² | - |
| 1787438708 | 26.11° C | 50% | 1005.3 hPa | 0 mm | - | 103 W/m² | - |
| 1787438408 | 25.56° C | 54% | 1005.4 hPa | 0 mm | - | 105 W/m² | - |
| 1787438103 | 25° C | 57% | 1005.5 hPa | 0 mm | - | 117 W/m² | - |
| 1787437798 | 25.56° C | 58% | 1005.5 hPa | 1.78 mm | - | 111 W/m² | - |
| 1787437495 | 25.56° C | 59% | 1005.5 hPa | 1.78 mm | - | 147 W/m² | - |
| 1787437190 | 26.11° C | 50% | 1005.7 hPa | 0 mm | - | 141 W/m² | - |
| 1787436887 | 25.56° C | 53% | 1005.5 hPa | 0 mm | - | 124 W/m² | - |
| 1787436583 | 24.44° C | 61% | 1005.8 hPa | 1.27 mm | - | 196 W/m² | - |
| 1787436283 | 23.89° C | 62% | 1006 hPa | 1.27 mm | - | 181 W/m² | - |
| 1787435977 | 23.33° C | 65% | 1006.4 hPa | 1.27 mm | - | 134 W/m² | - |
| 1787435673 | 23.33° C | 58% | 1006.8 hPa | 4.83 mm | - | 140 W/m² | - |
| 1787435369 | 22.78° C | 59% | 1006.9 hPa | 7.87 mm | - | 179 W/m² | - |
| 1787435066 | 22.22° C | 61% | 1006.9 hPa | 8.89 mm | - | 89 W/m² | - |
| 1787434761 | 22.22° C | 61% | 1007 hPa | 11.94 mm | - | 33 W/m² | - |
| 1787434457 | 23.33° C | 56% | 1007.2 hPa | 7.87 mm | - | 32 W/m² | - |
| 1787434152 | 25° C | 56% | 1006.9 hPa | 3.05 mm | - | 26 W/m² | - |
| 1787433849 | 25° C | 52% | 1006.5 hPa | 1.78 mm | - | 23 W/m² | - |
| 1787433543 | 26.11° C | 51% | 1006.5 hPa | 1.78 mm | - | 23 W/m² | - |
| 1787433239 | 26.67° C | 49% | 1005.8 hPa | 0 mm | - | 48 W/m² | - |
| 1787432936 | 27.78° C | 43% | 1006 hPa | 0 mm | - | 40 W/m² | - |
| 1787432631 | 32.78° C | 39% | 1005.7 hPa | 0 mm | - | 52 W/m² | - |
| 1787432329 | 33.89° C | 29% | 1005.5 hPa | 0 mm | - | 72 W/m² | - |
* Rain latest hour (hover to see other rain measurements)
** Current wind speed in m/s (hover to see current wind gust speed)